GALAXY 18 (G-18)

Last updated on Sun Apr 12 2026 00:02:51 GMT+0000 (Coordinated Universal Time)

1 32951U 08024A 26101.42500159 .00000027 00000+0 00000+0 0 9997 2 32951 0.0188 234.1072 0003017 150.9914 204.5348 1.00270771 45187
UTC large
Height (km)
Speed (km/s)
/
Latitude / Longitude
Inclination (degrees)
Orbital Period (minutes)
Azimuth
Elevation
Range (km)
Doppler Factor

Next 0 passes for location: London (51.5072 / 0.1276)

Sorry there are no passes over London.
GALAXY 18 (G-18)